www.pogodaiklimat.ru

Погода и климат >> Архив погоды >> Казахстан >> Сарыколь


АРХИВ ПОГОДЫ в Сарыколе

Время (UTC), дата Ветер
(напр.,м/с)
 
Видим.   Явления Облачность Т
(С)
Тd
(С)
f
(%)
Тe
(С)
Тes
(С)
Комфортность P
(гПа)
Po
(гПа)
Тmin
(С)
Tmax
(С)
R
(мм)
R24
(мм)
S
(см)
15 10.08 штиль 0 20 км 5/5 1000 м
[Cu med, cong]
+26.1 +15.2 51 +29 +29 жарко 1010.6 986.2 +32.4
18 10.08 З 2 н/о 4/3 600 м
[Cu med, cong Ac trans]
+20.7 +11.1 54 +23 +23 комфорт 1011.6 986.7 +32.4
21 10.08 СВ 3 н/о ясно +18.2 -6.9 17 +18 +18 1011.6 986.5
00 11.08 Ю 1 20 км ясно +16.2 +10.0 67 +17 +17 1011.0 986.2
03 11.08 Ю 3 20 км 3/0
[Ci sp]
+20.5 +13.3 63 +23 +26 комфорт 1011.0 986.1
06 11.08 Ю 4 20 км 5/0
[Ci sp]
+30.0 +19.8 54 +36 +43 очень
душно
1009.5 985.5 +16.0
09 11.08 Ю 5 20 км 4/0
[Ci sp]
+33.8 +20.4 45 +40 +46 очень
душно
1008.1 984.4
12 11.08 ЮЗ 4 20 км 4/0
[Ci sp]
+33.2 +19.6 45 +39 +42 очень
душно
1006.6 982.8
15 11.08 Ю 2 20 км 4/3 1000 м
[Cu med, cong Ci sp]
+28.8 +16.9 49 +33 +33 очень
душно
1005.8 981.8 +35.0
18 11.08 ЮВ 4 н/о 5/3 1000 м
[Cu med, cong Ci sp]
+22.2 +12.1 53 +25 +25 комфорт 1006.0 981.4 +35.0
21 11.08 ЮВ 3 н/о 3/3 1000 м
[Cu med, cong]
+20.4 +11.1 55 +22 +22 комфорт 1004.5 979.7
00 12.08 ЮВ 5 20 км 8/5 600 м
[Cu med, cong Ci sp]
+20.0 +11.5 58 +21 +21 комфорт 1003.1 978.3
03 12.08 ЮВ 5 20 км 8/3 600 м
[Cu med, cong Ci sp]
+22.5 +13.3 56 +25 +27 комфорт 1001.9 977.4
06 12.08 ЮВ 8 20 км 5/5 1000 м
[Cu med, cong]
+30.7 +18.4 48 +36 +37 очень
душно
999.3 975.5 +19.8
09 12.08 ЮВ 10 20 км 8/8 1000 м
[Cu med, cong]
+32.4 +18.2 43 +37 +37 очень
душно
997.7 974.1
12 12.08 В 10 20 км 8/8 1000 м
[Cu med, cong]
+30.1 +16.4 44 +33 +33 душно 996.3 972.5
15 12.08 В 9 20 км 9/9 1000 м
[Cu med, cong]
+25.4 +13.9 49 +28 +28 жарко 996.5 972.4 +33.3
18 12.08 В 5 н/о 8/8 1000 м
[Cu med, cong]
+22.2 +11.9 52 +25 +25 комфорт 996.3 971.9 +33.3
21 12.08 В 6 н/о зарница 8/8 600 м
[Cu med, cong]
+20.2 +11.8 58 +22 +22 комфорт 995.7 971.2
00 13.08 СВ 4 20 км 9/9 600 м
[Cu med, cong]
+18.5 +11.8 65 +19 +19 995.2 970.5
03 13.08 СВ 5 20 км {ливн. осадки} 8/8 600 м
[Cu med, cong]
+18.7 +12.8 69 +19 +20 995.1 970.4
06 13.08 С 4 20 км {ливн. осадки} 8/8 600 м
[Cu med, cong]
+20.2 +12.8 62 +22 +24 комфорт 995.0 970.5 +18.3 0.7
09 13.08 СЗ 7 20 км 5/5 1000 м
[Cu med, cong]
+24.8 +15.4 56 +28 +29 жарко 996.5 972.4
12 13.08 З 4 20 км 6/6 1000 м
[Cu med, cong]
+24.0 +13.3 51 +26 +27 жарко 998.3 974.0
15 13.08 ЮЗ 1 20 км 3/3 600 м
[Cu med, cong]
+21.8 +12.5 55 +24 +24 комфорт 1000.3 975.8 +25.6
18 13.08 Ю 3 н/о ясно +18.7 +10.7 60 +19 +19 1002.7 977.7 +25.6
21 13.08 ЮЗ 2 н/о 3/0
[Ci sp]
+15.5 +8.6 63 +15 +15 1003.6 978.4
00 14.08 З 2 20 км 8/5 600 м
[Cu med, cong Ci sp]
+14.7 +8.1 65 +14 +14 1005.4 980.1
03 14.08 СЗ 1 20 км 8/8 600 м
[Cu med, cong]
+14.1 +7.8 66 +15 +15 1007.2 981.8
06 14.08 З 4 20 км 8/8 600 м
[Cu med, cong]
+18.2 +10.6 61 +18 +20 1008.0 982.9 +13.9
09 14.08 Ю 6 20 км 9/9 600 м
[Cu med, cong]
+20.8 +11.7 56 +23 +23 комфорт 1008.4 983.5
12 14.08 З 4 20 км 8/8 1000 м
[Cu med, cong]
+22.1 +11.7 52 +24 +25 комфорт 1008.0 983.3
15 14.08 СЗ 3 20 км 9/9 600 м
[Cu med, cong]
+19.6 +11.4 59 +21 +21 комфорт 1009.4 984.4 +22.6
18 14.08 З 1 н/о 8/8 600 м
[Cu med, cong]
+16.6 +9.5 63 +18 +18 1009.9 984.6 +22.6
21 14.08 СЗ 3 н/о 4/4 600 м
[Cu med, cong]
+14.5 +8.5 67 +14 +14 1009.7 984.3
00 15.08 СЗ 2 20 км 3/3 600 м
[Cu med, cong]
+12.4 +6.8 69 +12 +12 1010.4 984.8
03 15.08 СЗ 3 20 км 8/8 600 м
[Cu med, cong]
+17.0 +10.4 65 +17 +17 1011.2 985.9
06 15.08 С 4 20 км 6/6 600 м
[Cu med, cong]
+19.3 +11.3 60 +20 +23 1011.3 986.3 +12.1
09 15.08 С 6 20 км 6/6 1000 м
[Cu med, cong]
+23.5 +13.5 53 +26 +28 жарко 1010.9 986.2
12 15.08 СЗ 5 20 км 8/8 1000 м
[Cu med, cong]
+24.6 +14.1 52 +27 +27 жарко 1010.5 985.9
15 15.08 С 3 20 км 8/8 1000 м
[Cu med, cong]
+22.3 +12.7 55 +25 +25 комфорт 1011.9 987.2 +25.2
18 15.08 С 2 н/о 5/5 600 м
[Cu med, cong]
+18.1 +10.3 60 +19 +19 1013.6 988.4 +25.2
21 15.08 СЗ 3 н/о 3/3 600 м
[Cu med, cong]
+14.5 +7.8 64 +14 +14 1014.3 988.7
00 16.08 С 2 20 км ясно +13.1 +7.6 69 +12 +12 1015.4 989.7
03 16.08 С 1 20 км ясно +17.7 +11.1 65 +19 +23 1016.1 990.8
06 16.08 СЗ 3 20 км 4/4 600 м
[Cu med, cong]
+22.1 +14.1 60 +25 +31 комфорт 1015.9 991.0 +12.8
09 16.08 СЗ 2 20 км 3/3 600 м
[Cu med, cong]
+25.2 +15.5 55 +28 +36 жарко 1015.2 990.6
12 16.08 С 4 20 км 3/1 1000 м
[Cu hum Ci sp]
+25.8 +15.7 54 +29 +31 душно 1014.8 990.3
15 16.08 штиль 0 20 км 5/3 600 м
[Cu med, cong Ci sp]
+22.6 +13.4 56 +26 +26 жарко 1015.8 990.9 +26.7
18 16.08 СЗ 2 н/о 4/3 600 м
[Cu med, cong Ci sp]
+17.6 +10.3 62 +18 +18 1017.3 992.0 +26.7
21 16.08 СЗ 2 н/о 4/4 600 м
[Cu med, cong]
+17.0 +10.3 65 +17 +17 1017.4 992.0
00 17.08 С 1 20 км ясно +15.3 +9.8 70 +16 +16 1018.2 992.6
03 17.08 штиль 0 20 км 4/0
[Ci sp]
+17.7 +11.0 65 +18 +22 1018.8 993.4
06 17.08 С 1 20 км 4/3 1000 м
[Cu med, cong Ci sp]
+25.0 +14.7 53 +28 +36 жарко 1018.8 994.1 +15.1
09 17.08 СВ 1 20 км 5/3 1000 м
[Cu med, cong Ci sp]
+26.5 +14.7 48 +29 +38 жарко 1018.0 993.3
12 17.08 СВ 2 20 км 6/4 1000 м
[Cu med, cong Ci sp]
+27.3 +15.1 47 +30 +32 душно 1017.6 993.0

 

Местоположение метеостанции Сарыколь (Костанайская область, Казахстан): широта 53.32 долгота 65.55 высота над уровнем моря 210 м.

В архиве по умолчанию представлена погода в Сарыколе за последнюю неделю. Архивные данные за месяц целиком и за предыдущие месяцы, начиная с января 2011 года, Вы можете получить, выбрав интересующий диапазон дат из раскрывающегося списка и нажав кнопку "Ввод!".


*Определитесь, кто Вы:
робот инопланетянин человек

Внимание! Время в таблицах - всемирное. Для получения местного времени необходимо прибавить поправку, которая равна 6 ч.

Смотрите также архив погоды в соседних городах и на ближайших метеорологических станциях:

Погода в Карасу (Костанайская область, Казахстан) (71 км)
Погода в Тимирязево (Северо-Казахстанская область, Казахстан) (78 км)
Погода в Рузаевке (Северо-Казахстанская область, Казахстан) (110 км)
Погода в Кусмурыне (Костанайская область, Казахстан) (111 км)
Погода в Костанае (Костанайская область, Казахстан) (129 км)
Погода в Пресногорьковке (Костанайская область, Казахстан) (130 км)
Погода в Костанае 2 (Костанайская область, Казахстан) (130 км)
Погода в Звериноголовском (Курганская область, Россия) (135 км)
Погода в Железнодорожной (Костанайская область, Казахстан) (136 км)
Погода в Сергеевке (Северо-Казахстанская область, Казахстан) (138 км)

Пояснения к столбцам:

Ветер - указаны скорость ветра в м/с - средняя за 10 мин, порывы в срок и между сроками (в фигурных скобках) и направление, откуда дует ветер: С - северный, СВ - северо-восточный, В - восточный, ЮВ - юго-восточный, Ю - южный, ЮЗ - юго-западный, З - западный, СЗ - северо-западный.
Видимость - горизонтальная дальность видимости в метрах или километрах. При видимости от 1 до 10 км при отсутствии осадков обычно наблюдается дымка, при ухудшении видимости до 1 км и менее - туман. В сухую погоду видимость может ухудшаться дымом, пылью или мглою.
Явления - указаны атмосферные явления, наблюдавшиеся в срок или в последний час перед сроком; фигурными скобками обозначены явления, наблюдавшиеся между сроками (за 1-3 часа до срока); квадратными скобками обозначены град или гололедные отложения с указанием их диаметра в мм.
Облачность - указаны через наклонную черту общая и нижняя облачность в баллах и высота нижней границы облаков в метрах; квадратными скобками обозначены формы облаков: Ci - перистые, Cs - перисто-слоистые, Cc - перисто-кучевые, Ac - высококучевые, As - высокослоистые, Sc - слоисто-кучевые, Ns - слоисто-дождевые, Cu - кучевые, Cb - кучево-дождевые. Подробнее классификацию облаков см. в Атласе облаков (PDF).
T - Температура воздуха - температура, измеренная на высоте 2 м над землей.
Td - Температура точки росы - температура, при понижении до которой содержащийся в воздухе водяной пар достигнет насыщения.
f - Относительная влажность воздуха - влажноcть воздуха, измеренная на высоте 2 м над землей.
Te - Эффективная температура - температура, которую ощущает одетый по сезону человек в тени. Характеристика душности погоды. При расчете учитывается влияние влажности воздуха и скорости ветра на теплоощущения человека.
Tes - Эффективная температура на солнце - температура, которую ощущает человек, с поправкой на солнечный нагрев. Характеристика знойности погоды. Зависит от высоты солнца над горизонтом, облачности и скорости ветра. Ночью, в пасмурную погоду, а также при ветре 12 м/с и более поправка равна нулю.
P - Атмосферное давление - приведенное к уровню моря атмосферное давление.
Po - Атмосферное давление - измеренное на уровне метеостанции атмосферное давление.
Tmin - Минимальная температура - минимум температуры воздуха на высоте 2 м над землей.
Tmax - Максимальная температура - максимум температуры воздуха на высоте 2 м над землей.
R - Количество осадков - Количество выпавших осадков за период времени, мм. При наведении курсора мыши на число - период времени, за который выпало указанное количество осадков.
R24 - Количество осадков - Количество выпавших осадков за 24 часа, мм.
S - Снежный покров - Высота снежного покрова, см. При наведении курсора мыши на число - состояние снежного покрова и степень покрытия местности в баллах.